Time,TemperatureF,DewpointF,PressureIn,WindDirection,WindDirectionDegrees,WindSpeedMPH,WindSpeedGustMPH,Humidity,HourlyPrecipIn,Conditions,Clouds,dailyrainin,SolarRadiationWatts/m^2,SoftwareType,DateUTC
2013-01-08 00:21:00,34.5,32.0,30.45,East,80,0.0,4.0,89,0.00,,,0.00,0,weatherlink.com 1.10,2013-01-08 05:21:00,
2013-01-08 00:36:00,35.5,32.0,30.44,ESE,121,0.0,2.0,86,0.00,,,0.00,0,weatherlink.com 1.10,2013-01-08 05:36:00,
2013-01-08 00:51:00,35.0,31.0,30.44,East,84,0.0,3.0,86,0.00,,,0.00,0,weatherlink.com 1.10,2013-01-08 05:51:00,
2013-01-08 01:06:00,34.8,31.0,30.44,SSE,164,0.0,1.0,87,0.00,,,0.00,0,weatherlink.com 1.10,2013-01-08 06:06:00,
2013-01-08 01:21:00,34.4,31.0,30.44,SSE,164,0.0,0.0,87,0.00,,,0.00,0,weatherlink.com 1.10,2013-01-08 06:21:00,
2013-01-08 01:37:00,33.3,30.0,30.44,SSE,164,0.0,0.0,88,0.00,,,0.00,0,weatherlink.com 1.10,2013-01-08 06:37:00,
2013-01-08 01:52:00,32.2,29.0,30.45,SSE,164,0.0,0.0,89,0.00,,,0.00,0,weatherlink.com 1.10,2013-01-08 06:52:00,
2013-01-08 02:07:00,31.5,29.0,30.45,SSE,164,0.0,0.0,90,0.00,,,0.00,0,weatherlink.com 1.10,2013-01-08 07:07:00,
2013-01-08 02:22:00,30.7,28.0,30.45,SSE,164,0.0,0.0,91,0.00,,,0.00,0,weatherlink.com 1.10,2013-01-08 07:22:00,
2013-01-08 02:37:00,30.2,28.0,30.45,SSE,164,0.0,1.0,92,0.00,,,0.00,0,weatherlink.com 1.10,2013-01-08 07:37:00,
2013-01-08 02:52:00,29.7,28.0,30.45,SSE,164,0.0,0.0,92,0.00,,,0.00,0,weatherlink.com 1.10,2013-01-08 07:52:00,
2013-01-08 03:07:00,29.2,28.0,30.44,SSE,164,0.0,0.0,93,0.00,,,0.00,0,weatherlink.com 1.10,2013-01-08 08:07:00,
2013-01-08 03:22:00,29.1,28.0,30.44,SSE,164,0.0,0.0,94,0.00,,,0.00,0,weatherlink.com 1.10,2013-01-08 08:22:00,
2013-01-08 03:37:00,29.1,28.0,30.44,SSE,164,0.0,0.0,94,0.00,,,0.00,0,weatherlink.com 1.10,2013-01-08 08:37:00,
2013-01-08 03:52:00,29.2,28.0,30.43,SSE,164,0.0,0.0,94,0.00,,,0.00,0,weatherlink.com 1.10,2013-01-08 08:52:00,
2013-01-08 04:07:00,29.4,28.0,30.43,SSE,164,0.0,0.0,94,0.00,,,0.00,0,weatherlink.com 1.10,2013-01-08 09:07:00,
2013-01-08 04:22:00,30.1,29.0,30.43,SSE,164,0.0,0.0,95,0.00,,,0.00,0,weatherlink.com 1.10,2013-01-08 09:22:00,
2013-01-08 04:37:00,30.6,29.0,30.43,SSE,164,0.0,0.0,95,0.00,,,0.00,0,weatherlink.com 1.10,2013-01-08 09:37:00,
2013-01-08 04:52:00,31.2,30.0,30.43,SSE,164,0.0,0.0,95,0.00,,,0.00,0,weatherlink.com 1.10,2013-01-08 09:52:00,
2013-01-08 05:07:00,32.0,31.0,30.43,SSE,164,0.0,1.0,95,0.00,,,0.00,0,weatherlink.com 1.10,2013-01-08 10:07:00,
2013-01-08 05:22:00,32.6,31.0,30.43,SSE,164,0.0,0.0,95,0.00,,,0.00,0,weatherlink.com 1.10,2013-01-08 10:22:00,
2013-01-08 05:37:00,33.3,32.0,30.43,SSE,164,0.0,2.0,95,0.00,,,0.00,0,weatherlink.com 1.10,2013-01-08 10:37:00,
2013-01-08 05:52:00,33.9,32.0,30.43,SSE,164,0.0,2.0,94,0.00,,,0.00,0,weatherlink.com 1.10,2013-01-08 10:52:00,
2013-01-08 06:07:00,34.2,32.0,30.45,SSE,164,1.0,2.0,93,0.00,,,0.00,0,weatherlink.com 1.10,2013-01-08 11:07:00,
2013-01-08 06:22:00,34.4,33.0,30.44,SSE,164,0.0,1.0,93,0.00,,,0.00,0,weatherlink.com 1.10,2013-01-08 11:22:00,
2013-01-08 06:37:00,34.8,33.0,30.44,SSE,164,0.0,0.0,93,0.00,,,0.00,0,weatherlink.com 1.10,2013-01-08 11:37:00,
2013-01-08 06:52:00,35.3,34.0,30.44,SSE,164,0.0,0.0,93,0.00,,,0.00,0,weatherlink.com 1.10,2013-01-08 11:52:00,
2013-01-08 07:07:00,35.7,34.0,30.44,SSE,164,0.0,0.0,92,0.00,,,0.00,0,weatherlink.com 1.10,2013-01-08 12:07:00,
2013-01-08 07:22:00,36.1,34.0,30.44,SSE,164,0.0,0.0,93,0.00,,,0.00,0,weatherlink.com 1.10,2013-01-08 12:22:00,
2013-01-08 07:37:00,36.5,35.0,30.44,SSE,164,0.0,0.0,93,0.00,,,0.00,0,weatherlink.com 1.10,2013-01-08 12:37:00,
2013-01-08 07:52:00,36.7,35.0,30.44,SSE,164,0.0,0.0,92,0.00,,,0.00,12,weatherlink.com 1.10,2013-01-08 12:52:00,
2013-01-08 08:07:00,37.0,35.0,30.46,SSE,165,1.0,2.0,92,0.00,,,0.00,16,weatherlink.com 1.10,2013-01-08 13:07:00,
2013-01-08 08:22:00,37.3,35.0,30.46,SSW,205,0.0,0.0,90,0.00,,,0.00,21,weatherlink.com 1.10,2013-01-08 13:22:00,
2013-01-08 08:37:00,37.6,35.0,30.48,SW,235,2.0,3.0,89,0.00,,,0.00,12,weatherlink.com 1.10,2013-01-08 13:37:00,
2013-01-08 08:52:00,37.8,35.0,30.48,SW,235,0.0,0.0,89,0.00,,,0.00,60,weatherlink.com 1.10,2013-01-08 13:52:00,
2013-01-08 09:07:00,38.2,35.0,30.49,SW,235,0.0,2.0,88,0.00,,,0.00,33,weatherlink.com 1.10,2013-01-08 14:07:00,
2013-01-08 09:22:00,38.5,36.0,30.49,WSW,244,0.0,4.0,89,0.00,,,0.00,19,weatherlink.com 1.10,2013-01-08 14:22:00,
2013-01-08 09:37:00,38.7,36.0,30.49,WSW,244,0.0,0.0,88,0.00,,,0.00,97,weatherlink.com 1.10,2013-01-08 14:37:00,
2013-01-08 09:52:00,39.2,36.0,30.49,WSW,244,0.0,1.0,88,0.00,,,0.00,95,weatherlink.com 1.10,2013-01-08 14:52:00,
2013-01-08 10:07:00,39.9,36.0,30.49,WSW,244,1.0,3.0,87,0.00,,,0.00,72,weatherlink.com 1.10,2013-01-08 15:07:00,
2013-01-08 10:22:00,40.4,36.0,30.49,WSW,244,0.0,2.0,85,0.00,,,0.00,121,weatherlink.com 1.10,2013-01-08 15:22:00,
2013-01-08 10:37:00,41.2,37.0,30.49,WSW,244,0.0,1.0,85,0.00,,,0.00,109,weatherlink.com 1.10,2013-01-08 15:37:00,
2013-01-08 10:53:00,41.8,37.0,30.49,WSW,244,1.0,3.0,84,0.00,,,0.00,84,weatherlink.com 1.10,2013-01-08 15:53:00,
2013-01-08 11:08:00,42.3,38.0,30.48,WSW,244,0.0,1.0,83,0.00,,,0.00,100,weatherlink.com 1.10,2013-01-08 16:08:00,
2013-01-08 11:23:00,43.2,38.0,30.47,NE,41,2.0,2.0,81,0.00,,,0.00,209,weatherlink.com 1.10,2013-01-08 16:23:00,
2013-01-08 11:38:00,44.3,38.0,30.47,SW,223,0.0,3.0,78,0.00,,,0.00,162,weatherlink.com 1.10,2013-01-08 16:38:00,
2013-01-08 11:53:00,45.7,39.0,30.46,West,259,4.0,4.0,77,0.00,,,0.00,585,weatherlink.com 1.10,2013-01-08 16:53:00,
2013-01-08 12:08:00,46.5,38.0,30.45,SW,217,1.0,3.0,73,0.00,,,0.00,153,weatherlink.com 1.10,2013-01-08 17:08:00,
2013-01-08 12:23:00,47.0,38.0,30.44,SW,228,2.0,6.0,71,0.00,,,0.00,262,weatherlink.com 1.10,2013-01-08 17:23:00,
2013-01-08 12:38:00,47.4,38.0,30.44,NW,313,0.0,4.0,71,0.00,,,0.00,295,weatherlink.com 1.10,2013-01-08 17:38:00,
2013-01-08 12:53:00,48.1,39.0,30.43,NE,34,0.0,4.0,70,0.00,,,0.00,271,weatherlink.com 1.10,2013-01-08 17:53:00,
2013-01-08 13:08:00,48.9,38.0,30.42,NE,40,0.0,5.0,66,0.00,,,0.00,120,weatherlink.com 1.10,2013-01-08 18:08:00,
2013-01-08 13:23:00,49.9,39.0,30.42,West,261,0.0,2.0,66,0.00,,,0.00,304,weatherlink.com 1.10,2013-01-08 18:23:00,
2013-01-08 13:38:00,51.1,38.0,30.41,ENE,76,0.0,3.0,61,0.00,,,0.00,309,weatherlink.com 1.10,2013-01-08 18:38:00,
2013-01-08 13:53:00,52.7,38.0,30.41,NW,323,0.0,2.0,58,0.00,,,0.00,248,weatherlink.com 1.10,2013-01-08 18:53:00,
2013-01-08 14:08:00,53.9,37.0,30.40,NNW,343,0.0,3.0,54,0.00,,,0.00,318,weatherlink.com 1.10,2013-01-08 19:08:00,
2013-01-08 14:23:00,54.7,38.0,30.40,WSW,256,2.0,3.0,54,0.00,,,0.00,204,weatherlink.com 1.10,2013-01-08 19:23:00,
2013-01-08 14:38:00,55.5,39.0,30.40,South,179,0.0,2.0,55,0.00,,,0.00,193,weatherlink.com 1.10,2013-01-08 19:38:00,
2013-01-08 14:53:00,55.9,41.0,30.39,NE,37,1.0,3.0,57,0.00,,,0.00,220,weatherlink.com 1.10,2013-01-08 19:53:00,
2013-01-08 15:08:00,56.2,40.0,30.39,NNE,27,1.0,5.0,55,0.00,,,0.00,128,weatherlink.com 1.10,2013-01-08 20:08:00,
2013-01-08 15:23:00,56.7,41.0,30.39,ENE,76,3.0,4.0,56,0.00,,,0.00,169,weatherlink.com 1.10,2013-01-08 20:23:00,
2013-01-08 15:38:00,56.7,42.0,30.39,SE,126,1.0,4.0,58,0.00,,,0.00,100,weatherlink.com 1.10,2013-01-08 20:38:00,
2013-01-08 15:53:00,56.9,41.0,30.39,SSE,156,0.0,3.0,56,0.00,,,0.00,95,weatherlink.com 1.10,2013-01-08 20:53:00,
2013-01-08 16:08:00,57.1,41.0,30.39,South,173,0.0,1.0,55,0.00,,,0.00,120,weatherlink.com 1.10,2013-01-08 21:08:00,
2013-01-08 16:23:00,56.9,41.0,30.40,South,169,0.0,1.0,55,0.00,,,0.00,56,weatherlink.com 1.10,2013-01-08 21:23:00,
2013-01-08 16:38:00,55.9,41.0,30.40,South,169,0.0,0.0,58,0.00,,,0.00,19,weatherlink.com 1.10,2013-01-08 21:38:00,
2013-01-08 16:53:00,54.7,42.0,30.41,South,169,0.0,0.0,62,0.00,,,0.00,19,weatherlink.com 1.10,2013-01-08 21:53:00,
2013-01-08 17:09:00,53.0,42.0,30.42,South,169,0.0,1.0,67,0.00,,,0.00,5,weatherlink.com 1.10,2013-01-08 22:09:00,
2013-01-08 17:24:00,51.8,41.0,30.42,South,169,0.0,0.0,68,0.00,,,0.00,0,weatherlink.com 1.10,2013-01-08 22:24:00,
2013-01-08 17:39:00,51.2,42.0,30.41,South,169,0.0,1.0,70,0.00,,,0.00,0,weatherlink.com 1.10,2013-01-08 22:39:00,
2013-01-08 17:54:00,50.5,42.0,30.41,South,169,0.0,0.0,72,0.00,,,0.00,0,weatherlink.com 1.10,2013-01-08 22:54:00,
2013-01-08 18:09:00,49.2,41.0,30.41,South,169,0.0,0.0,74,0.00,,,0.00,0,weatherlink.com 1.10,2013-01-08 23:09:00,
2013-01-08 18:24:00,48.2,41.0,30.41,South,169,0.0,0.0,76,0.00,,,0.00,0,weatherlink.com 1.10,2013-01-08 23:24:00,
2013-01-08 18:39:00,47.5,41.0,30.41,South,169,0.0,0.0,78,0.00,,,0.00,0,weatherlink.com 1.10,2013-01-08 23:39:00,
2013-01-08 18:54:00,46.4,40.0,30.41,South,169,0.0,0.0,79,0.00,,,0.00,0,weatherlink.com 1.10,2013-01-08 23:54:00,
2013-01-08 19:09:00,45.2,40.0,30.42,South,169,0.0,0.0,82,0.00,,,0.00,0,weatherlink.com 1.10,2013-01-09 00:09:00,
2013-01-08 19:24:00,44.6,40.0,30.42,South,169,0.0,0.0,83,0.00,,,0.00,0,weatherlink.com 1.10,2013-01-09 00:24:00,
2013-01-08 19:39:00,44.0,40.0,30.42,South,169,0.0,0.0,85,0.00,,,0.00,0,weatherlink.com 1.10,2013-01-09 00:39:00,
2013-01-08 19:54:00,43.4,39.0,30.42,South,169,0.0,1.0,85,0.00,,,0.00,0,weatherlink.com 1.10,2013-01-09 00:54:00,
2013-01-08 20:09:00,42.9,39.0,30.42,South,169,0.0,1.0,87,0.00,,,0.00,0,weatherlink.com 1.10,2013-01-09 01:09:00,
2013-01-08 20:24:00,42.7,39.0,30.42,SW,229,0.0,2.0,88,0.00,,,0.00,0,weatherlink.com 1.10,2013-01-09 01:24:00,
2013-01-08 20:39:00,42.9,40.0,30.42,SE,136,1.0,2.0,88,0.00,,,0.00,0,weatherlink.com 1.10,2013-01-09 01:39:00,
2013-01-08 20:54:00,43.1,40.0,30.42,SE,136,1.0,1.0,87,0.00,,,0.00,0,weatherlink.com 1.10,2013-01-09 01:54:00,
2013-01-08 21:09:00,43.7,40.0,30.41,SE,136,0.0,0.0,87,0.00,,,0.00,0,weatherlink.com 1.10,2013-01-09 02:09:00,
2013-01-08 21:24:00,44.0,40.0,30.42,NNW,327,2.0,2.0,87,0.00,,,0.00,0,weatherlink.com 1.10,2013-01-09 02:24:00,
2013-01-08 21:39:00,44.7,41.0,30.43,WNW,294,0.0,2.0,85,0.00,,,0.00,0,weatherlink.com 1.10,2013-01-09 02:39:00,
2013-01-08 21:54:00,45.7,42.0,30.43,SSE,163,0.0,2.0,85,0.00,,,0.00,0,weatherlink.com 1.10,2013-01-09 02:54:00,
2013-01-08 22:09:00,45.7,41.0,30.42,SSE,163,0.0,0.0,84,0.00,,,0.00,0,weatherlink.com 1.10,2013-01-09 03:09:00,
2013-01-08 22:24:00,45.6,41.0,30.41,SSE,163,0.0,2.0,84,0.00,,,0.00,0,weatherlink.com 1.10,2013-01-09 03:24:00,
2013-01-08 22:39:00,45.7,41.0,30.42,SSE,163,0.0,0.0,84,0.00,,,0.00,0,weatherlink.com 1.10,2013-01-09 03:39:00,
2013-01-08 22:54:00,45.5,41.0,30.41,SSE,163,0.0,1.0,85,0.00,,,0.00,0,weatherlink.com 1.10,2013-01-09 03:54:00,
2013-01-08 23:09:00,44.9,41.0,30.40,ENE,65,0.0,3.0,86,0.00,,,0.00,0,weatherlink.com 1.10,2013-01-09 04:09:00,
2013-01-08 23:24:00,44.3,41.0,30.41,West,261,0.0,4.0,87,0.00,,,0.00,0,weatherlink.com 1.10,2013-01-09 04:24:00,
2013-01-08 23:39:00,44.0,40.0,30.42,West,261,0.0,1.0,87,0.00,,,0.00,0,weatherlink.com 1.10,2013-01-09 04:39:00,
2013-01-08 23:54:00,44.5,41.0,30.42,West,261,0.0,0.0,86,0.00,,,0.00,0,weatherlink.com 1.10,2013-01-09 04:54:00,